Flag for Spain

Past Weather in Ponferrada, Spain — Yesterday and Last 2 Weeks

Now
60 °F

Cool.


Feels Like: 60 °F
Forecast: 56 / 48 °F
Wind: 8 mph from West

Location: Ponferrada
Current Time: Sep 24, 2020 at 8:00:20 pm
Latest Report: Sep 24, 2020 at 7:00 pm
Visibility: 13 mi
Pressure30.00 "Hg(28.20 "Hg at 524m altitude)
Humidity: 65%
Dew Point: 48 °F
Location of PonferradaLocation

Past Weather in Ponferrada — Graph

°F

Ponferrada Temperature Yesterday

Maximum temperature yesterday: 71 °F (at 6:00 pm)
Minimum temperature yesterday: 59 °F (at 7:00 am)
Average temperature yesterday: 63 °F

High & Low Weather Summary for the Past Weeks

 TemperatureHumidityPressure
High93 °F (Sep 13, 7:00 pm)95% (Sep 20, 11:00 am)30.22 "Hg (Sep 20, 11:00 am)
Low52 °F (Sep 22, 7:00 am)17% (Sep 9, 7:00 pm)29.72 "Hg (Sep 18, 6:00 pm)
Average68 °F62%29.99 "Hg
* Reported Sep 9 6:00 pm — Sep 24 6:00 pm, Ponferrada. Weather by CustomWeather, © 2020

Note: Actual official high and low records may vary slightly from our data, if they occured in-between our weather recording intervals... More about our weather records

Ponferrada Weather History for the Previous 24 Hours

Scroll right to see more
 ConditionsComfort  
Time TempWeatherWind HumidityBarometerVisibility
6:00 pm
Thu, Sep 24
60 °FFog.10 mph68%29.99 "Hg9 mi
5:00 pm63 °FMild.9 mph60%29.98 "Hg12 mi
4:00 pm63 °FMild.9 mph58%29.98 "Hg12 mi
3:00 pm63 °FMild.10 mph53%29.98 "Hg12 mi
2:00 pm64 °FMild.9 mph50%29.98 "Hg12 mi
1:00 pm62 °FMild.10 mph50%29.99 "Hg12 mi
12:00 pm60 °FCool.10 mph60%30.00 "Hg12 mi
11:00 am59 °FPartly sunny.6 mph71%29.98 "Hg19 mi
10:00 am58 °FCool.5 mph77%29.96 "Hg12 mi
9:00 am57 °FCool.2 mph81%29.96 "Hg12 mi
8:00 am56 °FCool.1 mph84%29.96 "Hg12 mi
7:00 am56 °FCool.2 mph81%29.96 "Hg12 mi
5:00 am57 °FCool.3 mph77%29.97 "Hg12 mi
4:00 am58 °FCool.6 mph75%29.98 "Hg12 mi
3:00 am59 °FCool.No wind74%29.98 "Hg12 mi
2:00 am59 °FCool.3 mph73%29.98 "Hg12 mi
1:00 am60 °FCool.3 mph77%29.97 "Hg12 mi
12:00 am61 °FCool.5 mph77%29.95 "Hg12 mi
11:00 pm
Wed, Sep 23
62 °FCool.2 mph74%29.95 "Hg12 mi
10:00 pm63 °FMild.3 mph70%29.93 "Hg12 mi
9:00 pm64 °FMild.3 mph68%29.90 "Hg12 mi
8:00 pm66 °FFog.3 mph65%29.89 "Hg12 mi
Weather by CustomWeather, © 2020

See weather overview